TimeCST,TemperatureF,Dew PointF,Humidity,Sea Level PressureIn,VisibilityMPH,Wind Direction,Wind SpeedMPH,Gust SpeedMPH,PrecipitationIn,Events,Conditions,WindDirDegrees,DateUTC
12:15 AM,15.8,10.4,79,29.79,10.0,South,10.4,-,N/A,,Clear,180,2013-01-07 06:15:00
12:35 AM,14.0,10.4,86,29.78,10.0,South,9.2,-,N/A,,Clear,170,2013-01-07 06:35:00
12:53 AM,14.0,10.4,86,29.77,10.0,South,9.2,-,N/A,,Clear,180,2013-01-07 06:53:00
1:15 AM,12.2,10.4,92,29.76,10.0,South,8.1,-,N/A,,Clear,190,2013-01-07 07:15:00
1:35 AM,12.2,10.4,92,29.75,10.0,South,6.9,-,N/A,,Clear,180,2013-01-07 07:35:00
1:52 AM,12.2,10.4,92,29.75,10.0,South,5.8,-,N/A,,Clear,180,2013-01-07 07:52:00
2:15 AM,14.0,10.4,86,29.75,10.0,SSW,4.6,-,N/A,,Clear,200,2013-01-07 08:15:00
2:35 AM,14.0,10.4,86,29.75,10.0,South,4.6,-,N/A,,Clear,190,2013-01-07 08:35:00
2:52 AM,12.2,10.4,92,29.75,10.0,SSW,4.6,-,N/A,,Clear,200,2013-01-07 08:52:00
3:15 AM,12.2,10.4,92,29.75,10.0,SSW,5.8,-,N/A,,Clear,200,2013-01-07 09:15:00
3:35 AM,12.2,10.4,92,29.74,10.0,SSW,6.9,-,N/A,,Clear,200,2013-01-07 09:35:00
3:53 AM,14.0,12.2,93,29.74,10.0,SSW,5.8,-,N/A,,Clear,210,2013-01-07 09:53:00
4:15 AM,15.8,12.2,86,29.73,10.0,SSW,6.9,-,N/A,,Clear,210,2013-01-07 10:15:00
4:35 AM,15.8,10.4,79,29.74,10.0,WSW,8.1,-,N/A,,Clear,240,2013-01-07 10:35:00
4:53 AM,17.6,15.8,93,29.74,10.0,SW,10.4,-,N/A,,Clear,230,2013-01-07 10:53:00
5:15 AM,19.4,15.8,86,29.74,10.0,SW,9.2,-,N/A,,Clear,220,2013-01-07 11:15:00
5:35 AM,19.4,15.8,86,29.73,10.0,SW,10.4,-,N/A,,Clear,220,2013-01-07 11:35:00
5:52 AM,21.2,17.6,86,29.72,10.0,SW,10.4,16.1,N/A,,Scattered Clouds,220,2013-01-07 11:52:00
6:35 AM,21.2,17.6,86,29.74,10.0,WSW,10.4,-,N/A,,Scattered Clouds,240,2013-01-07 12:35:00
6:53 AM,21.2,17.6,86,29.74,10.0,WSW,6.9,-,N/A,,Clear,240,2013-01-07 12:53:00
7:15 AM,21.2,17.6,86,29.75,10.0,WSW,10.4,-,N/A,,Clear,240,2013-01-07 13:15:00
7:35 AM,23.0,17.6,80,29.75,10.0,SW,8.1,-,N/A,,Clear,230,2013-01-07 13:35:00
7:53 AM,23.0,17.6,80,29.75,10.0,SW,6.9,-,N/A,,Clear,230,2013-01-07 13:53:00
8:15 AM,23.0,17.6,80,29.75,10.0,WSW,8.1,-,N/A,,Clear,240,2013-01-07 14:15:00
8:35 AM,23.0,17.6,80,29.76,10.0,WSW,9.2,-,N/A,,Clear,240,2013-01-07 14:35:00
8:53 AM,24.8,17.6,74,29.77,10.0,WSW,10.4,-,N/A,,Clear,240,2013-01-07 14:53:00
9:15 AM,24.8,17.6,74,29.78,10.0,WSW,11.5,-,N/A,,Clear,250,2013-01-07 15:15:00
9:34 AM,24.8,17.6,74,29.78,10.0,WSW,10.4,-,N/A,,Clear,240,2013-01-07 15:34:00
9:53 AM,26.6,19.4,74,29.79,10.0,WSW,10.4,-,N/A,,Clear,240,2013-01-07 15:53:00
10:15 AM,26.6,19.4,74,29.79,10.0,WSW,10.4,17.3,N/A,,Clear,240,2013-01-07 16:15:00
10:35 AM,28.4,19.4,69,29.80,10.0,WSW,10.4,17.3,N/A,,Clear,240,2013-01-07 16:35:00
10:53 AM,28.4,21.2,74,29.80,10.0,WSW,10.4,16.1,N/A,,Clear,240,2013-01-07 16:53:00
11:14 AM,28.4,21.2,74,29.80,10.0,WSW,9.2,-,N/A,,Clear,250,2013-01-07 17:14:00
11:35 AM,30.2,21.2,69,29.80,10.0,WSW,9.2,-,N/A,,Clear,240,2013-01-07 17:35:00
11:53 AM,30.2,21.2,69,29.79,10.0,WSW,10.4,16.1,N/A,,Clear,250,2013-01-07 17:53:00
12:14 PM,30.2,21.2,69,29.78,10.0,West,12.7,-,N/A,,Clear,270,2013-01-07 18:14:00
12:35 PM,30.2,21.2,69,29.78,10.0,West,15.0,18.4,N/A,,Clear,260,2013-01-07 18:35:00
12:52 PM,30.2,21.2,69,29.78,10.0,West,12.7,-,N/A,,Clear,270,2013-01-07 18:52:00
1:15 PM,30.2,21.2,69,29.78,10.0,West,12.7,-,N/A,,Clear,260,2013-01-07 19:15:00
1:35 PM,30.2,21.2,69,29.79,10.0,West,8.1,16.1,N/A,,Clear,260,2013-01-07 19:35:00
1:52 PM,32.0,21.2,64,29.79,10.0,West,10.4,-,N/A,,Clear,270,2013-01-07 19:52:00
2:15 PM,30.2,21.2,69,29.79,10.0,West,12.7,-,N/A,,Clear,260,2013-01-07 20:15:00
2:35 PM,30.2,21.2,69,29.80,10.0,WSW,6.9,-,N/A,,Clear,240,2013-01-07 20:35:00
2:52 PM,30.2,19.4,64,29.80,10.0,SW,9.2,-,N/A,,Clear,230,2013-01-07 20:52:00
3:15 PM,30.2,19.4,64,29.82,10.0,WSW,8.1,-,N/A,,Clear,250,2013-01-07 21:15:00
3:35 PM,30.2,19.4,64,29.83,10.0,West,5.8,-,N/A,,Clear,260,2013-01-07 21:35:00
3:53 PM,30.2,19.4,64,29.83,10.0,WSW,10.4,-,N/A,,Clear,250,2013-01-07 21:53:00
4:15 PM,28.4,19.4,69,29.84,10.0,WSW,8.1,-,N/A,,Clear,250,2013-01-07 22:15:00
4:34 PM,28.4,19.4,69,29.84,10.0,WSW,11.5,-,N/A,,Scattered Clouds,240,2013-01-07 22:34:00
4:53 PM,26.6,19.4,74,29.84,10.0,WSW,9.2,-,N/A,,Scattered Clouds,240,2013-01-07 22:53:00
5:15 PM,26.6,19.4,74,29.85,10.0,WSW,8.1,-,N/A,,Clear,240,2013-01-07 23:15:00
5:34 PM,26.6,19.4,74,29.84,10.0,SW,9.2,-,N/A,,Clear,230,2013-01-07 23:34:00
5:53 PM,24.8,19.4,80,29.85,10.0,WSW,8.1,-,N/A,,Clear,240,2013-01-07 23:53:00
6:15 PM,23.0,17.6,80,29.85,10.0,WSW,3.5,-,N/A,,Clear,240,2013-01-08 00:15:00
6:35 PM,23.0,17.6,80,29.86,10.0,WSW,5.8,-,N/A,,Clear,250,2013-01-08 00:35:00
6:53 PM,23.0,17.6,80,29.85,10.0,WSW,6.9,-,N/A,,Clear,240,2013-01-08 00:53:00
7:15 PM,19.4,15.8,86,29.86,10.0,WSW,8.1,-,N/A,,Clear,250,2013-01-08 01:15:00
7:35 PM,19.4,15.8,86,29.86,10.0,WSW,8.1,-,N/A,,Clear,250,2013-01-08 01:35:00
7:53 PM,19.4,15.8,86,29.86,10.0,WSW,8.1,-,N/A,,Clear,250,2013-01-08 01:53:00
8:15 PM,19.4,15.8,86,29.87,10.0,West,8.1,-,N/A,,Clear,260,2013-01-08 02:15:00
8:35 PM,19.4,17.6,93,29.87,10.0,WSW,9.2,-,N/A,,Clear,250,2013-01-08 02:35:00
8:53 PM,19.4,15.8,86,29.87,10.0,WSW,8.1,-,N/A,,Clear,250,2013-01-08 02:53:00
9:14 PM,19.4,17.6,93,29.87,10.0,WSW,8.1,-,N/A,,Clear,250,2013-01-08 03:14:00
9:34 PM,19.4,15.8,86,29.88,10.0,West,8.1,-,N/A,,Clear,260,2013-01-08 03:34:00
9:53 PM,19.4,15.8,86,29.88,10.0,West,6.9,-,N/A,,Clear,260,2013-01-08 03:53:00
10:15 PM,19.4,15.8,86,29.89,10.0,West,8.1,-,N/A,,Clear,260,2013-01-08 04:15:00
10:35 PM,17.6,15.8,93,29.89,10.0,West,6.9,-,N/A,,Clear,260,2013-01-08 04:35:00
10:53 PM,17.6,15.8,93,29.89,10.0,WSW,5.8,-,N/A,,Clear,250,2013-01-08 04:53:00
11:15 PM,15.8,14.0,93,29.88,10.0,WSW,6.9,-,N/A,,Clear,250,2013-01-08 05:15:00
11:35 PM,15.8,15.8,100,29.88,10.0,WSW,5.8,-,N/A,,Clear,250,2013-01-08 05:35:00
11:53 PM,12.2,10.4,92,29.89,10.0,Calm,Calm,-,N/A,,Clear,0,2013-01-08 05:53:00